Location: Lussas
(44.6119°N, 4.4726°E)
Time: 14:35:49
(UTC+00:00)

Envisat - Visible Passes

Search period start: 25 February 2021 00:00
Search period end: 07 March 2021 00:00
Orbit: 764 x 766 km, 98.1° (Epoch: 24 February)

Date Brightness Start Highest point End Pass type
(mag) Time Alt. Az. Time Alt. Az. Time Alt. Az.
25 Feb 3.2 05:23:39 10° NNE 05:28:45 76° ESE 05:33:49 10° S visible
26 Feb 4.7 04:47:09 10° NNE 04:51:48 35° E 04:56:25 10° SSE visible
27 Feb 5.9 04:11:26 10° NE 04:14:39 17° E 04:17:51 10° SE visible
27 Feb 3.0 05:49:05 10° N 05:54:07 64° WNW 05:59:07 10° SSW visible
28 Feb 3.6 05:12:16 10° NNE 05:17:18 60° E 05:22:19 10° S visible
28 Feb 6.8 18:11:53 10° WSW 18:13:13 11° W 18:14:33 10° WNW visible
01 Mar 5.1 04:35:56 10° NE 04:40:18 28° E 04:44:38 10° SSE visible
02 Mar 6.1 04:00:45 10° ENE 04:03:05 13° E 04:05:25 10° ESE visible
02 Mar 3.0 05:37:36 10° N 05:42:43 80° WNW 05:47:47 10° SSW visible
03 Mar 4.1 05:00:55 10° NNE 05:05:51 48° E 05:10:44 10° S visible
03 Mar 6.4 17:58:59 10° WSW 18:01:38 14° W 18:04:18 10° WNW visible
04 Mar 5.5 04:24:48 10° NE 04:28:47 23° E 04:32:43 10° SE visible
05 Mar 3.1 05:26:11 10° NNE 05:31:18 82° ESE 05:36:23 10° SSW visible
06 Mar 4.6 04:49:37 10° NNE 04:54:22 38° E 04:59:04 10° SSE visible
